Location: Sunny Point
(33.0946°N, 85.0574°W)
Time: 14:43:14
(UTC+00:00)

BEESAT - Visible Passes

Search period start: 12 July 2024 00:00
Search period end: 22 July 2024 00:00
Orbit: 694 x 700 km, 98.5° (Epoch: 11 July)

Date Brightness Start Highest point End Pass type
(mag) Time Alt. Az. Time Alt. Az. Time Alt. Az.
12 Jul ? 03:48:14 10° NNE 03:51:42 49° NNE 03:51:42 49° NNE visible
13 Jul ? 02:52:47 10° NE 02:54:20 16° ENE 02:54:20 16° ENE visible
13 Jul ? 04:29:32 10° N 04:33:05 32° NW 04:33:05 32° NW visible
14 Jul ? 03:32:37 10° NNE 03:35:43 37° NE 03:35:43 37° NE visible
14 Jul ? 05:12:19 10° NW 05:14:20 13° WNW 05:14:28 13° WNW visible
15 Jul ? 02:38:16 10° ENE 02:38:19 10° ENE 02:38:19 10° ENE visible
15 Jul ? 04:13:34 10° N 04:17:05 42° NNW 04:17:05 42° NNW visible
16 Jul ? 03:17:09 10° NNE 03:19:41 26° NE 03:19:41 26° NE visible
16 Jul ? 04:55:33 10° NNW 04:58:27 19° WNW 04:58:27 19° WNW visible
17 Jul ? 03:57:45 10° N 04:01:04 45° N 04:01:04 45° N visible
18 Jul ? 03:01:53 10° NE 03:03:40 18° ENE 03:03:40 18° ENE visible
18 Jul ? 04:39:14 10° NNW 04:42:25 26° NW 04:42:25 26° NW visible
19 Jul ? 03:42:02 10° NNE 03:45:00 38° NNE 03:45:00 38° NNE visible
20 Jul ? 02:46:58 10° NE 02:47:36 12° ENE 02:47:36 12° ENE visible
20 Jul ? 04:23:09 10° N 04:26:22 34° NW 04:26:22 34° NW visible
21 Jul ? 03:26:28 10° NNE 03:28:56 28° NE 03:28:56 28° NE visible
21 Jul ? 05:05:30 10° NNW 05:07:42 15° WNW 05:07:42 15° WNW visible
